Regional Weather Roundup
Issued by NWS State College, PA

Home | Current Version | Previous Version | Graphics & Text | Print | Product List | Glossary On
Versions: 1 2 3 4 5 6 7 8 9 10 11 12 13 14 15 16 17 18 19 20 21 22 23 24 25 26 27 28 29 30 31 32 33 34 35 36 37 38 39 40 41 42 43 44 45 46 47 48 49 50
000
ASUS41 KCTP 180410
RWRCTP

REGIONAL WEATHER ROUNDUP
NATIONAL WEATHER SERVICE STATE COLLEGE PA
1100 PM EST TUE JAN 17 2017

Note: "fair" indicates few or no clouds below 12,000 feet with no
significant weather and/or obstructions to visibility.

* = STATION THAT DOES NOT REPORT PRECIPITATION /E.G. RAIN...SNOW...ETC/
    THUNDER OR FOG.

PAZ002>004-007>009-013>016-020>023-029>032-180500-
WESTERN PENNSYLVANIA

CITY           SKY/WX    TMP DP  RH WIND       PRES   REMARKS
ERIE           CLOUDY    41  39  93 W18G28    29.87S FOG
MEADVILLE      LGT RAIN  44  41  89 W10       29.86S FOG
FRANKLIN*        N/A     46  43  87 W9        29.87S
NEW CASTLE     CLOUDY    49  42  77 W16G24    29.89R
BEAVER COUNTY  NOT AVBL
BUTLER*        MOCLDY    50  45  81 W8        29.90R
PITTSBURGH INT CLOUDY    52  46  80 NW13      29.88R
PITTSBURGH     CLOUDY    53  42  66 SW13      29.87F
INDIANA*       CLOUDY    52  50  93 W5        29.89S
LATROBE        PTCLDY    54  46  76 SW14G20   29.89F
WASHINGTON CO* NOT AVBL
$$

PAZ004>006-010>012-017>019-024>028-033>037-041-042-045-046-049>053-180500-
CENTRAL PENNSYLVANIA

CITY           SKY/WX    TMP DP  RH WIND       PRES   REMARKS
BRADFORD       LGT RAIN  45  44  97 W9        29.82S FOG
DUBOIS         CLOUDY    49  44  83 W8        29.83F
CLEARFIELD     FOG       38  38 100 CALM      29.86S VSB 1/4
JOHNSTOWN      CLOUDY    52  46  80 W21       29.86S
ALTOONA        FOG       36  36 100 CALM      29.87F VSB 1/4
STATE COLLEGE  FOG       36  35  99 CALM      29.88F VSB 1
WILLIAMSPORT   CLOUDY    38  37  97 SE6       29.92S
SELINSGROVE    FOG       36  36 100 CALM      29.93S VSB 1
FT INDIANTOWN  FOG       37  37 100 CALM      29.93F VSB 3/4
CAPITAL CITY   LGT RAIN  39  37  92 E3        29.93F FOG
HARRISBURG     LGT RAIN  39  39 100 CALM      29.93S VSB 1
YORK           RAIN      41  41 100 CALM      29.92F FOG
$$

PAZ038>040-043-044-047-048-054-055-060>062-067>071-180500-
EASTERN PENNSYLVANIA

CITY           SKY/WX    TMP DP  RH WIND       PRES   REMARKS
SCRANTON       CLOUDY    38  35  89 E3        29.90F
MOUNT POCONO   FOG       32  30  92 E10       29.90F VSB 1/4
ALLENTOWN      CLOUDY    38  35  89 NE7       29.95F FOG
QUAKERTOWN*    CLOUDY    37  37 100 NE5       29.95F VSB 1/2
READING        FOG       37  36  96 N6        29.93F VSB 1
LANCASTER      LGT RAIN  41  41 100 E5        29.92F FOG
COATESVILLE    RAIN      41  41 100 NE3       29.93F VSB<1/4
POTTSTOWN      FOG       38  38 100 N5        29.96S VSB 1
BLUE BELL      CLOUDY    39  39 100 CALM      29.93F VSB 1
DOYLESTOWN     FOG       40  39  97 N7        29.94F VSB 3/4
WILLOW GROVE   NOT AVBL
NORTH PHILA    CLOUDY    43  42  97 NE6       29.95F FOG
PHILADELPHIA   FOG       43  42  97 NE3       29.94F VSB 3/4
$$




USA.gov is the U.S. government's official web portal to all federal, state and local government web resources and services.